• In Moldova, Republic
  • List of Countries
  • For 7 days
  • Water Temperature
  • Satellite Maps
  • Weather Map
  • Weather Widgets
  • user-avatar
    Login

    Hourly Weather Innsbruck

    Today, 30 March, Thursday

    Time Temperature Precipitation Wind Pressure Humidity
    00:00 -1°C° 0 mm 1 mps 599 mmHg 95%
    01:00 -1°C° 0 mm 1 mps 599 mmHg 95%
    02:00 -2°C° 0 mm 1 mps 599 mmHg 95%
    03:00 -2°C° 0 mm 1 mps 598 mmHg 95%
    04:00 -2°C° 0 mm 1 mps 598 mmHg 94%
    05:00 -1°C° 0 mm 1 mps 599 mmHg 92%
    06:00 -1°C° 0 mm 1 mps 599 mmHg 90%
    07:00 0°C° 0 mm 1 mps 599 mmHg 88%
    08:00 +2°C° 0 mm 0 mps 601 mmHg 80%
    09:00 +4°C° 0 mm 0 mps 602 mmHg 72%
    10:00 +7°C° 0 mm 0 mps 603 mmHg 65%
    11:00 +8°C° 0 mm 0 mps 603 mmHg 61%
    12:00 +10°C° 0 mm 1 mps 603 mmHg 58%
    13:00 +10°C° 0 mm 1 mps 603 mmHg 55%
    14:00 +10°C° 0 mm 1 mps 603 mmHg 57%
    15:00 +10°C° 0 mm 1 mps 603 mmHg 59%
    16:00 +10°C° 0 mm 1 mps 602 mmHg 61%
    17:00 +7°C° 0 mm 1 mps 601 mmHg 70%
    18:00 +3°C° 0 mm 1 mps 599 mmHg 80%
    19:00 0°C° 0 mm 1 mps 598 mmHg 89%
    20:00 +1°C° 0 mm 1 mps 598 mmHg 89%
    21:00 +1°C° 0 mm 1 mps 598 mmHg 89%
    22:00 -1°C° 0 mm 2 mps 599 mmHg 88%
    23:00 -1°C° 0 mm 2 mps 599 mmHg 89%

    Tomorrow, 31 March, Friday

    Time Temperature Precipitation Wind Pressure Humidity
    00:00 -2°C° 0 mm 2 mps 599 mmHg 89%
    01:00 -2°C° 0 mm 2 mps 598 mmHg 90%
    02:00 -2°C° 0 mm 2 mps 598 mmHg 90%
    03:00 -2°C° 0 mm 2 mps 598 mmHg 91%
    04:00 -2°C° 0 mm 2 mps 597 mmHg 92%
    05:00 -2°C° 0 mm 2 mps 598 mmHg 91%
    06:00 -1°C° 0 mm 2 mps 598 mmHg 90%
    07:00 -1°C° 0 mm 2 mps 598 mmHg 90%
    08:00 +2°C° 0 mm 2 mps 599 mmHg 81%
    09:00 +5°C° 0 mm 2 mps 599 mmHg 72%
    10:00 +8°C° 0 mm 1 mps 600 mmHg 64%
    11:00 +9°C° 0 mm 1 mps 600 mmHg 60%
    12:00 +9°C° 0 mm 2 mps 600 mmHg 55%
    13:00 +10°C° 0 mm 2 mps 600 mmHg 51%
    14:00 +10°C° 0 mm 2 mps 600 mmHg 54%
    15:00 +10°C° 0 mm 2 mps 599 mmHg 57%
    16:00 +9°C° 0 mm 2 mps 599 mmHg 59%
    17:00 +6°C° 0.1 mm 2 mps 597 mmHg 71%
    18:00 +5°C° 0.1 mm 1 mps 596 mmHg 82%
    19:00 +2°C° 0.1 mm 1 mps 594 mmHg 93%
    20:00 +2°C° 0 mm 1 mps 594 mmHg 93%
    21:00 +1°C° 0 mm 2 mps 595 mmHg 94%
    22:00 +1°C° 0 mm 2 mps 595 mmHg 94%
    23:00 -1°C° 0 mm 2 mps 594 mmHg 94%

    Day after tomorrow, 1 April, Saturday

    Time Temperature Precipitation Wind Pressure Humidity
    00:00 -1°C° 0 mm 2 mps 594 mmHg 94%
    01:00 -1°C° 0 mm 2 mps 594 mmHg 94%
    02:00 -2°C° 0 mm 2 mps 593 mmHg 94%
    03:00 -2°C° 0 mm 2 mps 593 mmHg 93%
    04:00 -2°C° 0 mm 2 mps 593 mmHg 93%
    05:00 -2°C° 0 mm 2 mps 593 mmHg 92%
    06:00 -2°C° 0 mm 2 mps 593 mmHg 90%
    07:00 -1°C° 0 mm 2 mps 593 mmHg 88%
    08:00 +2°C° 0 mm 2 mps 594 mmHg 79%
    09:00 +4°C° 0 mm 2 mps 595 mmHg 70%
    10:00 +6°C° 0 mm 2 mps 595 mmHg 61%
    11:00 +7°C° 0 mm 2 mps 596 mmHg 58%
    12:00 +8°C° 0 mm 2 mps 596 mmHg 55%
    13:00 +9°C° 0 mm 2 mps 596 mmHg 51%
    14:00 +8°C° 0.3 mm 2 mps 595 mmHg 56%
    15:00 +7°C° 0.3 mm 2 mps 595 mmHg 60%
    16:00 +7°C° 0.3 mm 2 mps 595 mmHg 65%
    17:00 +5°C° 0.6 mm 2 mps 594 mmHg 74%
    18:00 +3°C° 0.6 mm 1 mps 593 mmHg 83%
    19:00 +1°C° 0.6 mm 1 mps 593 mmHg 92%
    20:00 +1°C° 0.4 mm 1 mps 593 mmHg 93%
    21:00 +1°C° 0.4 mm 1 mps 593 mmHg 93%
    22:00 0°C° 0.4 mm 1 mps 594 mmHg 94%
    23:00 0°C° 0.1 mm 1 mps 594 mmHg 94%

    2 April, Sunday

    Time Temperature Precipitation Wind Pressure Humidity
    00:00 0°C° 0.1 mm 1 mps 594 mmHg 94%
    01:00 0°C° 0.1 mm 1 mps 594 mmHg 94%
    02:00 0°C° 0 mm 1 mps 594 mmHg 94%
    03:00 0°C° 0 mm 1 mps 594 mmHg 94%
    04:00 -1°C° 0 mm 1 mps 594 mmHg 94%
    05:00 0°C° 0 mm 1 mps 595 mmHg 90%
    06:00 -1°C° 0 mm 0 mps 595 mmHg 87%
    07:00 0°C° 0 mm 0 mps 596 mmHg 84%
    08:00 +2°C° 0 mm 0 mps 597 mmHg 77%
    09:00 +5°C° 0 mm 1 mps 598 mmHg 70%
    10:00 +6°C° 0 mm 1 mps 599 mmHg 63%
    11:00 +7°C° 0.1 mm 1 mps 599 mmHg 62%
    12:00 +8°C° 0.1 mm 1 mps 599 mmHg 61%
    13:00 +8°C° 0.1 mm 1 mps 599 mmHg 59%
    14:00 +8°C° 0.3 mm 1 mps 599 mmHg 62%
    15:00 +8°C° 0.3 mm 1 mps 599 mmHg 66%
    16:00 +7°C° 0.3 mm 1 mps 598 mmHg 69%
    17:00 +6°C° 0.3 mm 1 mps 598 mmHg 77%
    18:00 +4°C° 0.3 mm 1 mps 597 mmHg 85%
    19:00 +2°C° 0.3 mm 1 mps 597 mmHg 93%
    20:00 +2°C° 0.3 mm 1 mps 597 mmHg 95%
    21:00 +2°C° 0.3 mm 1 mps 598 mmHg 96%
    22:00 +2°C° 0.3 mm 1 mps 598 mmHg 97%
    23:00 +2°C° 0.2 mm 1 mps 598 mmHg 97%

    3 April, Monday

    Time Temperature Precipitation Wind Pressure Humidity
    00:00 +2°C° 0.2 mm 1 mps 598 mmHg 97%
    01:00 +2°C° 0.2 mm 1 mps 598 mmHg 97%
    02:00 +2°C° 0.1 mm 1 mps 598 mmHg 97%
    03:00 +2°C° 0.1 mm 1 mps 598 mmHg 97%
    04:00 +1°C° 0.1 mm 1 mps 598 mmHg 97%
    05:00 +2°C° 0.1 mm 1 mps 599 mmHg 96%
    06:00 +2°C° 0.1 mm 1 mps 599 mmHg 96%
    07:00 +2°C° 0.1 mm 1 mps 599 mmHg 95%
    08:00 +3°C° 0.3 mm 1 mps 599 mmHg 91%
    09:00 +4°C° 0.3 mm 1 mps 600 mmHg 87%
    10:00 +5°C° 0.3 mm 1 mps 600 mmHg 83%
    11:00 +4°C° 0.2 mm 2 mps 600 mmHg 82%
    12:00 +4°C° 0.2 mm 2 mps 600 mmHg 81%
    13:00 +5°C° 0.2 mm 2 mps 600 mmHg 80%
    14:00 +5°C° 0.1 mm 2 mps 600 mmHg 80%
    15:00 +5°C° 0.1 mm 2 mps 600 mmHg 80%
    16:00 +5°C° 0.1 mm 2 mps 600 mmHg 81%
    17:00 +4°C° 0.1 mm 2 mps 600 mmHg 85%
    18:00 +3°C° 0.1 mm 1 mps 599 mmHg 90%
    19:00 +2°C° 0.1 mm 1 mps 599 mmHg 95%
    20:00 +2°C° 0 mm 1 mps 599 mmHg 95%
    21:00 +2°C° 0 mm 1 mps 599 mmHg 96%
    22:00 +1°C° 0 mm 1 mps 599 mmHg 96%
    23:00 +1°C° 0.1 mm 1 mps 599 mmHg 96%

    4 April, Tuesday

    Time Temperature Precipitation Wind Pressure Humidity
    00:00 0°C° 0.1 mm 1 mps 599 mmHg 96%
    01:00 0°C° 0.1 mm 1 mps 599 mmHg 96%
    02:00 0°C° 0 mm 1 mps 599 mmHg 96%
    03:00 0°C° 0 mm 1 mps 598 mmHg 95%
    04:00 0°C° 0 mm 1 mps 598 mmHg 95%
    05:00 0°C° 0 mm 1 mps 599 mmHg 94%
    06:00 0°C° 0 mm 1 mps 599 mmHg 93%
    07:00 +1°C° 0 mm 1 mps 599 mmHg 92%
    08:00 +2°C° 0 mm 1 mps 599 mmHg 85%
    09:00 +2°C° 0 mm 2 mps 600 mmHg 78%
    10:00 +3°C° 0 mm 2 mps 600 mmHg 71%
    11:00 +4°C° 0 mm 2 mps 600 mmHg 68%
    12:00 +5°C° 0 mm 2 mps 600 mmHg 64%
    13:00 +6°C° 0 mm 2 mps 600 mmHg 61%
    14:00 +6°C° 0 mm 2 mps 600 mmHg 63%
    15:00 +5°C° 0 mm 2 mps 600 mmHg 65%
    16:00 +5°C° 0 mm 2 mps 600 mmHg 67%
    17:00 +4°C° 0 mm 2 mps 599 mmHg 75%
    18:00 +2°C° 0 mm 2 mps 599 mmHg 84%
    19:00 +2°C° 0 mm 1 mps 598 mmHg 92%
    20:00 +1°C° 0 mm 1 mps 598 mmHg 93%
    21:00 +1°C° 0 mm 1 mps 598 mmHg 94%
    22:00 0°C° 0 mm 1 mps 598 mmHg 95%
    23:00 0°C° 0 mm 1 mps 598 mmHg 95%
    Show more